Location: Le Vaud
(46.4779°N, 6.2346°E)
Time: 18:30:17
(UTC+00:00)

Cosmos 1238 Rocket - Pass Details

Date: 18 February 2020
Orbit: 373 x 1032 km, 83.0° (Epoch: 05 April)

Event Time Altitude Azimuth Distance (km) Brightness Sun altitude
Rises 05:13:11 0° 351° (N) 3,728 6.9 -14.7°
Reaches altitude 10° 05:15:53 10° 351° (N) 2,720 6.2 -14.2°
Maximum altitude 05:22:10 90° 73° (ENE) 881 3.8 -13.1°
Drops below altitude 10° 05:27:29 10° 173° (S) 2,310 6.1 -12.2°
Sets 05:29:38 0° 174° (S) 3,135 6.8 -11.9°
